Temp
59 58 58 57 58 58 58 58 58 59 60 63 62 61 61 61 60 59 59 61 61 61 61 61 61 60 58 58 58 57 55 54 54 57 57 57 58 60 61 61 61 60 61
60 57 56 57 57 56 56 56 56 57 58 59 61 63 63 62 60 59 59 59 59 59 60 59 60 60 57 57 56 56 55 56 55 57 55 55 56 60 58 58 63 65 61
58 57 55 54 54 54 54 53 54 55 55 55 56 56 58 59 60 60 59 58 55 55 55 55 55 54 53 53 54 55 55 58 54 54 56 54 57 55 56 56 56 57 60
58 55 54 53 52 51 51 50 51 52 51 52 52 54 54 55 56 55 56 54 52 53 53 53 54 53 52 51 51 51 53 52 53 53 55 57 55 56 54 55 58 53 56
56 54 52 51 50 50 49 49 49 49 49 49 49 50 49 52 55 49 50 48 47 47 48 50 52 54 56 54 53 50 49 48 49 49 50 50 51 51 53 53 53 55 52
53 52 51 50 49 47 47 46 45 45 44 45 45 46 45 51 49 48 49 45 45 44 44 46 48 52 52 53 54 54 51 47 46 46 48 46 47 49 50 51 51 49 50
51 51 50 48 47 45 45 43 41 40 40 40 40 42 43 42 46 46 48 45 42 43 43 44 46 51 51 50 50 51 51 51 52 51 49 50 50 51 49 52 52 52 52
47 47 47 45 44 43 41 39 36 36 36 36 37 39 39 42 44 43 44 42 41 41 42 42 41 43 44 46 47 47 49 51 49 50 51 50 51 52 51 51 51 51 51
44 44 44 43 40 40 38 35 35 34 35 36 40 40 40 41 43 42 42 43 44 43 44 45 45 45 45 43 43 42 43 45 50 49 48 47 46 45 47 50 49 49 49
41 42 42 39 37 36 35 34 34 37 40 41 41 41 42 40 43 42 42 42 41 42 45 45 45 45 43 42 42 41 42 44 45 46 46 47 47 49 47 48 49 47 48
40 39 38 36 35 37 39 40 39 35 37 38 39 40 41 41 41 42 42 42 42 42 43 44 47 44 42 41 42 44 44 46 46 46 45 46 48 49 51 52 49 49 49
36 36 36 36 40 40 37 34 35 37 37 38 38 38 42 43 43 42 42 42 43 41 42 44 44 43 41 41 41 42 41 42 44 44 44 43 43 47 51 53 53 52 54
34 33 36 38 38 35 34 36 37 38 37 37 37 38 39 42 43 43 42 41 42 42 44 44 42 41 41 41 41 41 41 41 42 42 42 43 45 47 51 50 52 53 53
32 35 36 35 37 37 38 38 37 37 37 38 38 38 39 40 41 43 43 43 43 43 44 44 43 42 41 41 40 41 41 43 42 43 43 45 45 44 44 47 46 48 51
35 36 36 36 36 36 38 37 37 39 39 38 38 39 38 39 41 42 40 40 41 41 41 40 40 40 39 41 41 42 42 44 43 43 43 44 45 46 46 44 45 44 47
34 35 35 36 36 36 37 38 41 40 40 40 39 38 42 40 40 39 39 38 38 38 38 39 39 40 40 41 42 43 44 45 45 46 45 45 45 46 46 44 45 44 45
34 34 35 35 35 36 37 37 37 42 43 42 41 40 40 39 39 39 39 38 37 36 37 39 40 41 42 43 43 44 44 46 47 47 48 48 47 48 45 47 45 46 46
35 36 35 35 35 36 37 38 40 40 38 40 43 41 40 39 38 39 40 40 44 40 40 41 43 44 44 45 47 49 52 53 52 51 49 50 49 48 47 48 48 47 48
35 35 36 36 35 37 36 34 39 37 36 38 41 41 40 38 39 40 40 43 43 43 45 45 47 48 49 51 53 54 54 52 51 52 51 50 49 50 49 51 49 43 46
35 36 36 35 36 31 32 33 36 36 36 37 37 37 38 37 38 39 41 41 41 42 43 45 48 50 49 48 50 51 54 53 52 52 51 51 51 52 50 49 49 49 50
35 35 33 36 35 35 34 35 36 35 35 35 36 37 34 35 37 38 38 40 41 43 46 48 47 46 45 45 45 46 49 53 53 51 50 50 48 47 47 49 50 51 52
34 34 34 34 35 34 34 35 35 34 34 34 34 36 34 36 36 37 38 39 41 46 46 45 43 43 43 42 43 43 43 45 50 53 51 50 50 51 51 51 52 53 52
34 34 34 34 34 34 34 34 34 33 33 34 34 34 34 34 35 36 37 38 41 42 43 43 42 40 40 40 40 40 39 40 43 51 55 53 52 52 54 54 54 53 52
34 34 33 33 33 33 33 33 33 33 33 34 34 33 33 34 34 34 36 37 39 40 41 41 41 40 39 39 38 38 37 36 44 48 55 55 53 53 54 53 52 51 49
34 33 33 33 32 32 33 33 33 33 33 33 33 33 33 33 33 34 35 36 38 39 39 40 40 40 38 38 37 36 34 34 37 36 53 54 53 53 52 52 52 51 49
33 33 32 32 31 31 31 31 31 31 31 32 32 32 32 32 33 33 34 35 36 37 38 38 39 39 37 36 35 34 33 34 35 35 48 52 51 51 50 49 49 47 46
MSLP
1011.85 1012.75 1012.83 1012.83 1012.74 1012.60 1012.42 1012.62 1012.69 1012.30 1011.90 1011.82 1011.55 1011.38 1011.27 1011.24 1011.25 1011.25 1011.33 1011.06 1010.97 1010.83 1011.08 1011.28 1010.87 1010.76 1010.74 1011.22 1011.31 1011.44 1011.44 1011.84 1011.64 1010.90 1011.04 1010.38 1010.20 1009.96 1009.78 1009.55 1009.46 1009.45 1009.27
1012.05 1012.59 1012.95 1012.97 1012.95 1013.03 1013.05 1012.96 1012.85 1012.64 1012.44 1012.42 1012.16 1011.76 1011.54 1011.49 1011.74 1011.19 1010.95 1010.97 1011.18 1011.04 1011.19 1010.99 1010.95 1010.38 1010.87 1010.73 1010.62 1010.96 1010.93 1011.07 1011.13 1010.39 1010.34 1010.28 1009.95 1009.48 1009.25 1009.20 1009.08 1008.69 1008.65
1011.90 1012.46 1013.24 1013.64 1013.54 1013.61 1013.48 1013.31 1012.95 1012.82 1012.73 1012.52 1012.20 1012.06 1011.91 1011.59 1011.60 1011.21 1010.99 1011.01 1011.13 1011.08 1011.02 1011.06 1010.85 1010.77 1010.72 1010.65 1010.43 1010.46 1010.33 1010.63 1010.53 1010.18 1009.69 1009.71 1009.42 1009.31 1009.06 1008.82 1008.52 1008.24 1008.08
1012.04 1012.70 1013.20 1013.65 1014.00 1014.16 1014.10 1014.04 1014.03 1014.06 1014.03 1013.91 1013.62 1013.18 1012.83 1012.46 1012.16 1011.93 1011.54 1011.37 1011.39 1011.21 1011.12 1011.03 1010.94 1010.76 1010.68 1010.48 1010.20 1010.37 1010.23 1010.33 1009.93 1009.68 1009.48 1009.37 1009.37 1009.01 1009.00 1008.83 1008.29 1008.02 1007.74
1012.63 1013.30 1013.91 1014.07 1014.08 1014.30 1014.41 1014.47 1014.39 1014.33 1014.35 1014.20 1013.85 1013.53 1013.22 1012.97 1012.44 1012.24 1011.82 1011.63 1011.73 1011.49 1011.15 1011.00 1010.51 1010.51 1010.19 1009.95 1010.01 1009.91 1010.18 1009.98 1009.49 1009.18 1009.15 1009.10 1008.93 1008.82 1008.65 1008.32 1008.09 1007.75 1007.42
1013.94 1014.49 1014.67 1014.94 1015.21 1015.48 1015.72 1015.56 1015.42 1015.17 1014.86 1014.54 1014.24 1013.82 1013.34 1012.97 1012.61 1012.41 1012.09 1011.97 1011.81 1011.51 1011.25 1010.91 1010.65 1010.30 1009.86 1009.44 1009.33 1009.43 1009.53 1009.37 1009.08 1009.02 1008.90 1008.76 1008.55 1008.41 1008.21 1008.05 1007.84 1007.69 1007.23
1015.06 1015.41 1015.63 1016.06 1016.33 1016.39 1016.42 1016.33 1016.11 1015.76 1015.39 1014.95 1014.39 1013.90 1013.49 1013.07 1012.62 1012.32 1012.03 1011.82 1011.59 1011.14 1010.89 1010.52 1010.06 1009.64 1009.24 1009.00 1009.04 1008.95 1008.67 1008.27 1008.03 1008.26 1008.16 1008.00 1007.86 1007.72 1007.71 1007.48 1007.34 1007.25 1006.68
1015.84 1016.24 1016.59 1016.77 1016.76 1016.47 1016.23 1016.18 1015.98 1015.51 1015.11 1014.74 1014.22 1013.68 1013.29 1012.83 1012.32 1011.98 1011.58 1011.20 1010.91 1010.51 1010.11 1009.88 1009.68 1009.32 1009.02 1008.91 1008.69 1008.28 1007.77 1007.53 1007.45 1007.47 1007.26 1007.16 1007.02 1006.92 1006.85 1006.68 1006.57 1006.37 1006.06
1016.42 1016.72 1016.75 1016.67 1016.43 1016.23 1016.00 1015.86 1015.63 1015.23 1014.74 1014.29 1013.69 1013.20 1012.71 1012.16 1011.64 1011.28 1010.97 1010.52 1010.09 1009.81 1009.47 1009.23 1008.82 1008.58 1008.41 1008.29 1008.14 1007.75 1007.39 1007.07 1006.91 1006.70 1006.55 1006.49 1006.34 1006.16 1006.19 1006.43 1005.89 1005.75 1005.39
1017.37 1017.26 1016.98 1016.99 1016.86 1016.43 1016.14 1015.80 1015.48 1015.12 1014.55 1014.13 1013.48 1012.97 1012.37 1011.76 1011.12 1010.60 1010.35 1010.12 1009.60 1009.17 1008.75 1008.40 1008.13 1007.98 1007.69 1007.51 1007.49 1007.23 1006.76 1006.36 1006.21 1005.96 1005.77 1005.57 1005.36 1005.03 1004.99 1005.20 1005.19 1005.11 1004.93
1017.86 1017.62 1017.45 1017.10 1016.77 1016.34 1016.06 1015.72 1015.42 1015.15 1014.75 1014.16 1013.47 1012.70 1012.05 1011.50 1010.79 1010.19 1009.88 1009.62 1009.29 1008.80 1008.33 1007.90 1007.46 1007.17 1006.95 1006.86 1006.68 1006.37 1005.91 1005.67 1005.42 1005.24 1004.97 1004.76 1004.39 1004.06 1003.75 1003.53 1003.58 1003.78 1003.83
1018.04 1017.65 1017.23 1016.92 1016.68 1016.40 1016.20 1015.96 1015.60 1015.08 1014.51 1013.81 1013.11 1012.28 1011.54 1010.83 1010.31 1009.82 1009.41 1009.04 1008.77 1008.63 1008.03 1007.49 1007.06 1006.59 1006.39 1006.14 1005.78 1005.27 1005.04 1004.96 1004.80 1004.43 1003.97 1003.58 1003.32 1002.93 1002.55 1002.51 1002.57 1002.79 1002.88
1017.85 1017.59 1017.32 1017.08 1016.92 1016.73 1016.45 1015.93 1015.36 1014.73 1014.09 1013.43 1012.84 1012.13 1011.29 1010.51 1009.90 1009.37 1008.93 1008.59 1008.25 1007.99 1007.53 1006.96 1006.43 1005.98 1005.59 1005.06 1004.50 1004.08 1003.94 1003.96 1003.65 1003.32 1002.76 1002.24 1002.06 1001.86 1001.81 1001.91 1001.92 1002.00 1002.04
1018.27 1018.09 1017.75 1017.35 1016.92 1016.49 1016.01 1015.50 1015.02 1014.41 1013.84 1013.34 1012.83 1012.11 1011.36 1010.52 1009.66 1008.93 1008.53 1008.18 1007.74 1007.32 1006.80 1006.25 1005.88 1005.49 1004.92 1004.24 1003.65 1003.02 1002.76 1002.47 1002.21 1001.84 1001.42 1001.04 1001.15 1001.27 1001.26 1001.27 1001.50 1001.55 1001.57
1018.39 1018.14 1017.64 1017.18 1016.86 1016.22 1015.75 1015.24 1014.78 1014.07 1013.81 1013.39 1012.76 1012.13 1011.41 1010.39 1009.50 1008.94 1008.36 1007.83 1007.34 1006.88 1006.52 1006.00 1005.38 1004.67 1003.88 1003.01 1002.26 1001.65 1001.19 1000.82 1000.62 1000.34 1000.28 1000.10 1000.08 1000.24 1000.37 1000.66 1000.89 1001.05 1001.27
1018.37 1018.00 1017.53 1017.17 1016.71 1016.26 1015.66 1014.93 1014.20 1013.79 1013.06 1012.52 1012.04 1011.78 1011.18 1010.65 1009.62 1008.55 1007.60 1007.02 1006.67 1006.45 1006.25 1005.48 1004.57 1003.78 1002.89 1001.87 1000.84 999.70 999.45 999.01 998.63 998.51 998.65 998.75 998.87 999.13 999.60 1000.06 1000.36 1000.57 1000.78
1018.31 1017.86 1017.57 1017.22 1016.77 1016.34 1015.94 1015.38 1014.48 1013.11 1012.49 1011.97 1011.63 1011.20 1010.96 1010.40 1009.27 1008.18 1007.32 1006.61 1006.08 1006.15 1005.85 1004.73 1003.71 1002.72 1001.67 1000.89 999.88 998.93 998.09 996.88 996.65 996.70 996.55 996.94 997.57 998.16 998.95 999.36 999.86 1000.03 1000.24
1018.21 1017.96 1017.63 1017.25 1016.93 1016.51 1016.07 1015.57 1014.82 1014.03 1013.26 1012.29 1011.63 1011.35 1010.86 1010.15 1009.23 1008.23 1007.31 1006.19 1005.77 1005.63 1004.92 1003.99 1002.92 1002.04 1001.04 1000.12 999.06 997.70 996.46 995.84 995.39 994.98 994.85 995.38 996.47 997.52 998.38 998.89 999.31 999.59 999.84
1018.32 1018.03 1017.57 1017.28 1017.03 1016.74 1016.30 1015.86 1015.05 1014.63 1014.12 1013.21 1012.22 1011.44 1011.12 1010.34 1009.30 1008.39 1007.52 1007.18 1006.47 1005.39 1004.36 1003.24 1002.48 1001.41 1000.53 999.73 998.62 997.82 996.99 996.47 995.75 994.86 994.44 995.23 996.51 997.49 998.15 998.53 999.02 999.21 999.42
1018.44 1018.04 1017.73 1017.48 1017.22 1016.94 1016.57 1016.04 1015.43 1014.95 1014.45 1013.90 1013.15 1012.56 1011.85 1010.82 1009.72 1009.00 1008.36 1007.57 1006.74 1005.73 1004.67 1003.60 1002.75 1002.03 1001.37 1000.48 999.46 998.67 997.73 997.24 996.86 996.47 996.35 996.66 997.15 997.51 997.92 998.52 998.80 999.12 999.26
1018.50 1018.22 1018.04 1017.76 1017.52 1017.26 1016.84 1016.28 1015.86 1015.47 1015.03 1014.60 1013.99 1013.36 1012.94 1011.97 1011.03 1010.24 1009.25 1008.22 1007.39 1006.14 1005.23 1004.50 1003.88 1003.20 1002.43 1001.41 1000.60 1000.26 999.38 998.30 997.86 997.65 997.73 997.85 997.95 998.22 998.52 998.79 998.93 999.13 999.26
1018.75 1018.57 1018.33 1018.13 1017.91 1017.58 1017.20 1016.75 1016.43 1016.08 1015.56 1015.05 1014.49 1013.79 1013.25 1012.44 1011.75 1010.99 1010.18 1009.20 1008.35 1007.23 1006.48 1005.76 1005.04 1004.50 1004.00 1003.12 1002.15 1001.93 1000.83 999.95 999.03 998.50 998.28 998.35 998.31 998.44 998.74 998.94 999.16 999.40 999.70
1019.03 1018.88 1018.69 1018.50 1018.27 1017.96 1017.59 1017.24 1016.94 1016.63 1016.06 1015.50 1015.00 1014.46 1013.76 1013.22 1012.53 1011.93 1011.17 1010.31 1009.31 1008.48 1007.67 1007.05 1006.38 1005.72 1005.12 1004.50 1003.70 1003.10 1002.44 1001.47 1000.45 999.52 998.71 998.55 998.59 998.88 999.00 999.16 999.46 999.79 1000.12
1019.42 1019.24 1019.12 1018.99 1018.75 1018.47 1018.16 1017.79 1017.47 1017.12 1016.62 1016.07 1015.59 1015.19 1014.72 1014.18 1013.44 1012.83 1012.10 1011.31 1010.48 1009.55 1008.75 1008.03 1007.43 1006.96 1006.26 1005.36 1004.74 1004.16 1003.70 1002.81 1001.43 1000.32 999.39 999.10 999.09 999.20 999.35 999.58 999.88 1000.21 1000.63
1019.89 1019.78 1019.70 1019.53 1019.27 1019.03 1018.74 1018.39 1018.04 1017.68 1017.31 1016.86 1016.38 1015.93 1015.59 1015.05 1014.33 1013.54 1012.95 1012.28 1011.47 1010.70 1009.96 1009.26 1008.60 1008.02 1007.33 1006.74 1006.05 1005.14 1004.19 1003.09 1002.41 1001.58 1000.51 1000.01 999.81 999.81 1000.03 1000.14 1000.42 1000.75 1001.11
1020.67 1020.61 1020.46 1020.18 1019.95 1019.77 1019.50 1019.18 1018.86 1018.50 1018.13 1017.79 1017.33 1016.78 1016.33 1015.82 1015.25 1014.57 1013.79 1013.11 1012.28 1011.62 1011.07 1010.38 1009.64 1008.90 1008.47 1007.80 1007.27 1006.43 1005.38 1004.29 1003.33 1002.39 1001.65 1001.23 1000.91 1000.69 1000.68 1000.77 1000.95 1001.13 1001.39
Wind_Speed
9 5 6 4 6 6 6 4 3 3 6 6 6 6 6 6 5 3 4 5 4 4 4 5 7 4 4 4 4 4 5 4 7 5 5 4 4 7 7 5 6 6 7
8 8 7 7 7 7 7 6 7 7 7 6 6 5 4 4 4 3 3 4 5 5 6 4 6 2 3 4 3 5 4 6 6 13 6 5 7 7 6 6 7 6 5
9 8 7 7 7 8 7 8 8 9 9 10 10 9 9 8 7 6 4 3 2 2 2 3 4 4 4 4 3 4 3 4 4 5 7 3 5 3 5 5 6 5 4
9 8 8 7 7 7 6 7 7 6 6 7 7 7 8 7 6 7 6 5 5 4 4 4 5 5 6 5 4 6 5 5 4 4 6 6 5 6 4 5 8 3 6
10 8 8 7 8 8 10 9 8 9 7 6 6 6 6 6 5 8 6 6 5 6 5 5 5 7 12 8 5 5 6 5 4 4 5 3 3 3 5 4 6 5 3
9 9 8 8 8 7 7 8 8 8 8 8 8 8 8 7 10 11 5 5 5 5 6 6 6 12 10 12 12 11 7 4 4 4 5 5 5 4 3 4 4 3 6
10 9 8 6 5 5 3 3 4 5 5 6 6 6 9 7 13 12 13 8 7 8 9 9 9 8 11 9 12 16 16 16 17 12 13 12 12 9 6 11 11 8 8
8 7 5 4 3 4 4 4 5 4 6 6 6 6 6 7 13 13 15 9 7 8 8 8 7 7 7 9 9 10 10 9 8 6 9 10 10 9 8 9 11 9 6
9 7 7 8 8 8 8 8 6 5 6 6 7 8 9 9 13 13 11 7 7 7 6 7 7 8 11 13 9 9 9 10 9 13 14 14 15 16 13 8 8 7 9
7 7 6 6 7 7 6 8 5 6 8 8 10 9 13 10 14 14 12 6 7 6 7 8 13 13 14 13 9 8 10 10 8 8 7 9 12 11 15 13 10 12 10
6 6 5 5 5 5 7 6 7 7 7 8 9 9 11 11 12 15 15 8 7 7 7 8 8 12 12 11 14 11 12 10 12 9 8 8 9 10 9 9 10 10 9
4 5 5 6 7 7 7 5 6 7 7 8 8 9 8 9 12 13 14 13 12 8 9 8 9 10 11 16 12 15 16 14 8 9 9 10 9 9 8 7 8 8 8
6 6 7 8 6 5 6 7 6 6 6 7 7 8 9 9 9 14 14 14 14 9 8 11 16 16 19 16 20 20 18 9 10 10 11 12 10 8 9 7 7 7 7
5 6 5 6 8 7 5 4 5 6 6 6 7 8 9 9 10 7 6 6 9 9 12 10 14 19 23 21 18 14 10 11 11 11 11 10 8 6 7 6 6 5 5
5 5 6 5 6 7 5 6 6 8 6 7 8 8 9 10 11 17 15 8 6 8 10 7 7 7 9 9 9 10 9 10 10 11 10 9 8 7 8 5 5 3 5
5 4 5 6 5 5 7 8 9 10 15 14 14 11 7 11 19 20 18 15 11 11 4 6 9 9 10 11 11 10 9 11 10 10 10 10 8 7 7 4 4 4 4
5 5 5 6 6 6 6 6 9 11 12 8 12 13 10 17 23 21 16 13 10 5 4 7 9 9 11 11 12 11 11 12 11 10 10 10 8 7 7 5 5 4 4
5 9 4 5 7 6 6 7 6 7 9 10 11 13 17 23 23 18 15 11 7 3 6 9 10 10 10 10 11 11 8 6 4 7 9 9 9 8 7 6 5 5 5
5 4 5 5 4 7 6 5 6 7 8 9 10 10 16 23 17 14 15 8 10 10 10 10 9 9 9 9 8 9 9 6 7 7 7 9 9 7 6 4 4 3 3
4 9 7 4 5 4 5 5 5 7 7 8 8 10 12 11 11 11 11 10 9 10 10 11 10 11 11 10 10 9 8 7 7 8 8 8 6 6 5 5 4 4 3
4 4 6 5 5 5 5 6 6 6 7 7 8 9 15 9 9 10 10 11 11 11 10 11 11 11 11 11 10 11 10 8 7 5 5 5 4 4 4 4 3 4 3
4 4 4 5 5 5 5 6 6 7 8 8 8 10 14 8 9 10 11 11 12 10 10 11 11 11 12 12 12 10 10 9 9 6 4 4 3 3 3 3 4 4 4
4 5 5 5 5 6 6 6 7 7 8 8 9 9 9 10 10 10 11 11 11 11 11 11 11 12 12 11 11 11 10 11 10 8 4 3 3 3 3 4 5 5 4
4 5 5 5 6 6 6 7 7 8 8 9 9 9 9 10 10 11 10 10 10 11 11 11 12 17 14 15 13 12 11 12 10 9 6 5 4 4 4 4 5 6 6
6 6 6 6 6 6 7 8 8 9 9 9 10 9 9 9 10 11 10 10 10 10 12 12 12 17 19 21 21 23 22 23 16 14 8 6 5 5 4 4 4 5 6
7 7 6 6 7 7 7 8 8 9 9 9 9 10 10 10 10 11 10 11 11 11 13 11 15 20 20 17 21 22 23 25 21 21 11 8 6 5 4 5 6 3 5
Wind_Direction
82 90 87 68 58 52 57 42 25 24 21 13 13 20 25 29 26 360 326 316 328 310 290 279 260 251 289 254 235 228 218 211 244 251 235 258 265 257 263 252 246 260 267
100 84 62 56 46 40 32 18 8 4 0 356 354 356 355 4 333 354 341 320 307 317 302 317 304 339 270 271 258 256 233 227 236 261 221 234 223 247 241 253 259 252 248
92 88 69 50 43 32 25 16 20 15 13 9 8 4 356 353 340 343 338 347 342 311 358 344 314 330 314 292 289 273 261 258 226 257 278 235 250 270 275 254 248 261 251
77 65 61 48 41 44 41 41 41 32 31 13 7 7 3 341 357 358 357 355 346 344 330 314 288 271 264 279 270 266 265 253 238 239 262 266 234 248 227 248 264 231 262
65 57 42 45 42 33 28 21 16 20 14 9 9 6 1 337 359 347 338 343 338 328 325 312 308 305 304 288 280 269 260 252 239 239 252 232 233 226 217 233 252 257 268
67 62 51 48 41 30 16 12 7 359 355 350 344 334 328 323 325 317 302 293 286 284 288 283 270 290 281 270 270 267 238 243 250 241 254 232 228 229 241 255 261 245 266
66 57 48 40 34 18 356 354 339 315 304 295 292 284 292 284 292 284 281 281 277 279 265 268 270 271 279 277 271 270 263 258 251 254 255 253 258 242 233 251 254 255 257
64 56 44 25 348 318 309 318 303 280 291 288 281 274 276 282 294 296 298 292 279 272 266 269 263 276 266 265 272 273 271 263 257 253 257 260 259 258 239 242 246 253 265
34 18 9 357 347 341 346 337 322 318 321 312 311 311 309 301 298 300 303 296 286 278 267 266 262 268 269 268 277 274 273 266 256 250 251 257 260 262 255 275 266 253 261
9 349 349 346 335 329 337 334 316 320 323 325 316 311 307 305 304 297 295 292 291 291 288 277 265 259 263 264 265 262 266 265 259 257 249 248 248 250 242 237 239 242 243
340 334 331 323 316 332 333 334 331 319 309 309 308 311 321 315 301 303 303 297 289 291 294 291 285 264 262 263 260 259 257 264 273 270 267 264 257 251 247 237 216 217 229
335 337 338 349 351 341 329 316 310 305 305 310 310 309 308 297 290 288 288 284 282 282 284 283 281 277 286 281 264 254 250 255 258 254 251 251 248 246 244 228 206 205 223
351 345 347 346 334 319 312 308 310 310 310 313 313 312 309 309 301 293 282 279 278 275 271 274 274 281 281 276 266 262 257 253 247 247 247 249 242 239 243 236 236 227 235
340 336 337 341 329 319 307 308 308 312 312 312 310 309 307 307 302 298 293 291 278 277 278 278 286 289 280 272 276 270 249 242 239 244 243 244 241 231 228 217 223 228 236
339 333 335 328 318 314 326 304 309 297 277 296 300 293 303 307 306 308 304 298 285 274 289 285 287 283 283 276 267 260 252 246 235 235 236 239 233 219 223 194 205 191 219
337 331 332 331 325 333 328 327 311 276 290 293 281 265 304 284 300 308 301 290 269 271 272 280 281 278 275 280 278 273 266 256 238 232 230 226 222 204 200 178 191 187 195
332 332 324 336 338 329 327 319 322 323 313 322 329 328 346 330 333 331 336 320 285 272 250 275 273 277 280 282 282 286 277 264 252 238 224 215 204 190 173 180 179 181 190
337 333 324 334 328 322 319 324 316 333 334 331 336 340 351 345 335 333 339 319 334 237 268 281 286 289 287 285 286 287 308 318 282 248 221 205 170 158 169 178 176 183 187
338 320 337 327 323 335 327 322 320 347 339 327 334 341 351 343 329 332 334 346 331 323 317 311 310 302 299 315 323 334 346 2 356 6 59 105 125 142 152 149 148 123 98
324 351 355 340 344 339 331 323 342 342 344 338 340 343 344 342 352 344 341 336 330 323 320 324 339 4 4 351 347 351 359 13 18 33 73 99 119 133 140 137 153 153 162
344 351 346 357 357 345 333 346 350 349 347 344 341 340 339 337 340 343 341 342 341 334 349 2 3 5 2 355 356 359 353 3 26 47 52 50 59 86 100 125 143 123 128
14 6 6 9 355 355 351 351 358 353 347 347 345 346 346 354 353 353 348 346 349 357 2 2 3 8 6 359 357 7 357 353 352 17 64 77 93 107 123 122 117 119 111
28 25 23 19 10 3 8 6 4 0 354 354 356 356 359 358 355 356 351 349 353 356 1 1 7 4 5 5 3 5 5 349 330 323 26 72 99 89 89 102 99 101 105
32 35 35 30 25 20 15 12 9 9 8 5 4 5 3 358 355 354 355 352 354 360 1 4 9 12 3 6 6 4 3 349 346 346 4 28 70 88 75 76 84 97 95
43 40 37 33 32 24 20 20 17 16 16 12 7 6 5 3 0 359 358 358 0 5 6 5 8 8 7 7 8 4 360 1 6 353 3 21 38 55 73 79 96 100 111
42 38 32 32 35 29 25 23 20 15 15 12 9 6 4 4 4 1 359 1 4 9 9 9 2 7 11 9 3 359 2 3 360 354 3 19 21 32 70 94 105 107 120